Project,Study,Ord_Occ,Event_Num,Cast_ID,Date_Time_UTC,Date_Time_PST,Lat_Dec,Lon_Dec,Sta_ID,Line,Sta,Depth,Pressure,PrQ,Temp1,Temp1Q,Temp2,Temp2Q,TempAve,Salt1,Salt1Q,Salt1_Corr,Salt2,Salt2Q,Salt2_Corr,SaltAve_Corr,Ox1,Ox1Q,Ox1_CruiseCorr,Ox1_StaCorr,Ox2,Ox2Q,Ox2_CruiseCorr,Ox2_StaCorr,OxAve_StaCorr,Ox1uM,Ox1uM_CruiseCorr,Ox1uM_StaCorr,Ox2uM,Ox2uM_CruiseCorr,Ox2uM_StaCorr,OxAveuM_StaCorr,FluorV,FluorQ,EstChl_CruiseCorr,EstChl_StaCorr,ISUSV,ISUSQ,EstNO3_CruiseCorr,EstNO3_StaCorr,SigThetaTS1,SigThetaTS1Q,SigThetaTS2,SigThetaTS2Q,BAT,XMiss,TransQ,pH,pHQ,SPAR,SPARQ,PAR,PARQ,PoT1,PoT2,DynHt,SVA,OxSat1,OxSat2,BTL_Depth,BTL_Temp,SaltB,OxB,OxBuM,Chl-a,Phaeo,NO3,NO2,NH4,PO4,SIL
CalCOFI,2101RL,062,,2101_062d,31-Jan-2021 11:34:16,31-Jan-2021 03:34:16,33.81750,-121.83439,080.0 070.0,080.0,070.0,3.000,3.022,,12.6679,,12.6474,,12.6577,,,,33.2771,,33.2791,,,,,,5.5961,,5.9416,5.9557,,,,,243.794,203.4709,259.9340,,0.1313,,0.8277,0.8000, ,, , ,,,25.1275,,0.8536,80.7823,,,,3.6617E+00,,1.0000E-12,,,12.6470,,,,,2,,33.2816,5.976,260.81,0.857,0.331,,,,,
CalCOFI,2101RL,062,,2101_062d,31-Jan-2021 11:34:26,31-Jan-2021 03:34:26,33.81752,-121.83436,080.0 070.0,080.0,070.0,4.000,4.029,,12.6631,,12.6405,,12.6518,,,,33.2756,,33.2776,,,,,,5.6516,,6.0006,6.0145,,,,,246.212,189.3227,262.5020,,0.1278,,0.7990,0.7708, ,, , ,,,25.1278,,0.8575,80.7043,,,,3.6949E+00,,1.0000E-12,,,12.6400,,,,,,,,,,,,,,,,
CalCOFI,2101RL,062,,2101_062d,31-Jan-2021 11:34:27,31-Jan-2021 03:34:27,33.81752,-121.83436,080.0 070.0,080.0,070.0,5.000,5.036,,12.6626,,12.6410,,12.6518,,,,33.2758,,33.2778,,,,,,5.6497,,5.9985,6.0125,,,,,246.130,187.8860,262.4149,,0.1281,,0.8015,0.7733, ,, , ,,,25.1278,,0.8572,80.7106,,,,3.6947E+00,,1.0000E-12,,,12.6404,,,,,,,,,,,,,,,,
CalCOFI,2101RL,062,,2101_062d,31-Jan-2021 11:34:28,31-Jan-2021 03:34:28,33.81752,-121.83436,080.0 070.0,080.0,070.0,6.000,6.043,,12.6620,,12.6429,,12.6525,,,,33.2757,,33.2777,,,,,,5.6504,,5.9993,6.0133,,,,,246.160,189.0847,262.4468,,0.1340,,0.8498,0.8226, ,, , ,,,25.1274,,0.8569,80.7163,,,,3.6947E+00,,1.0000E-12,,,12.6421,,,,,,,,,,,,,,,,
CalCOFI,2101RL,062,,2101_062d,31-Jan-2021 11:34:30,31-Jan-2021 03:34:30,33.81754,-121.83434,080.0 070.0,080.0,070.0,7.000,7.050,,12.6611,,12.6449,,12.6530,,,,33.2761,,33.2781,,,,,,5.6531,,6.0022,6.0161,,,,,246.278,187.2477,262.5721,,0.1268,,0.7908,0.7625, ,, , ,,,25.1273,,0.8560,80.7347,,,,3.6947E+00,,1.0000E-12,,,12.6440,,,,,,,,,,,,,,,,
CalCOFI,2101RL,062,,2101_062d,31-Jan-2021 11:34:32,31-Jan-2021 03:34:32,33.81754,-121.83434,080.0 070.0,080.0,070.0,8.000,8.058,,12.6601,,12.6496,,12.6549,,,,33.2781,,33.2801,,,,,,5.6597,,6.0092,6.0231,,,,,246.566,187.7270,262.8780,,0.1232,,0.7613,0.7326, ,, , ,,,25.1280,,0.8559,80.7375,,,,3.6947E+00,,1.0000E-12,,,12.6486,,,,,,,,,,,,,,,,
CalCOFI,2101RL,062,,2101_062d,31-Jan-2021 11:34:33,31-Jan-2021 03:34:33,33.81756,-121.83432,080.0 070.0,080.0,070.0,9.000,9.065,,12.6593,,12.6504,,12.6549,,,,33.2781,,33.2801,,,,,,5.6529,,6.0019,6.0159,,,,,246.269,186.7584,262.5626,,0.1187,,0.7244,0.6954, ,, , ,,,25.1279,,0.8582,80.6914,,,,3.6947E+00,,1.0000E-12,,,12.6492,,,,,,,,,,,,,,,,
CalCOFI,2101RL,062,,2101_062d,31-Jan-2021 11:34:35,31-Jan-2021 03:34:35,33.81756,-121.83432,080.0 070.0,080.0,070.0,10.000,10.072,,12.6587,,12.6499,,12.6543,,,,33.2785,,33.2805,,,,,,5.6235,,5.9707,5.9847,,,,,244.988,184.1807,261.2021,,0.1331,,0.8424,0.8151, ,, , ,,,25.1283,,0.8568,80.7181,,,,3.6947E+00,,1.0000E-12,,,12.6485,,,,,10,,33.2941,5.943,259.36,0.751,0.323,,,,,
CalCOFI,2101RL,062,,2101_062d,31-Jan-2021 11:34:37,31-Jan-2021 03:34:37,33.81756,-121.83430,080.0 070.0,080.0,070.0,11.000,11.079,,12.6581,,12.6710,,12.6646,,,,33.2884,,33.2904,,,,,,5.6008,,5.9466,5.9607,,,,,243.998,181.4063,260.1506,,0.1167,,0.7081,0.6789, ,, , ,,,25.1319,,0.8491,80.8748,,,,3.6947E+00,,1.0000E-12,,,12.6696,,,,,,,,,,,,,,,,
CalCOFI,2101RL,062,,2101_062d,31-Jan-2021 11:34:38,31-Jan-2021 03:34:38,33.81756,-121.83430,080.0 070.0,080.0,070.0,12.000,12.086,,12.6577,,12.6934,,12.6756,,,,33.2991,,33.3011,,,,,,5.5742,,5.9184,5.9324,,,,,242.840,178.4672,258.9208,,0.1171,,0.7113,0.6822, ,, , ,,,25.1359,,0.8434,80.9891,,,,3.6947E+00,,1.0000E-12,,,12.6918,,,,,,,,,,,,,,,,
CalCOFI,2101RL,062,,2101_062d,31-Jan-2021 11:34:39,31-Jan-2021 03:34:39,33.81758,-121.83428,080.0 070.0,080.0,070.0,13.000,13.094,,12.6575,,12.7102,,12.6839,,,,33.3107,,33.3127,,,,,,5.5705,,5.9144,5.9285,,,,,242.676,175.6305,258.7466,,0.1106,,0.6581,0.6289, ,, , ,,,25.1416,,0.8353,81.1549,,,,3.6947E+00,,1.0000E-12,,,12.7085,,,,,,,,,,,,,,,,
CalCOFI,2101RL,062,,2101_062d,31-Jan-2021 11:34:44,31-Jan-2021 03:34:44,33.81759,-121.83427,080.0 070.0,080.0,070.0,14.000,14.101,,12.6584,,12.7156,,12.6870,,,,33.3206,,33.3226,,,,,,5.5583,,5.9015,5.9156,,,,,242.145,168.9295,258.1826,,0.1116,,0.6663,0.6371, ,, , ,,,25.1483,,0.8270,81.3233,,,,3.5942E+00,,1.0000E-12,,,12.7137,,,,,,,,,,,,,,,,
CalCOFI,2101RL,062,,2101_062d,31-Jan-2021 11:34:53,31-Jan-2021 03:34:53,33.81760,-121.83424,080.0 070.0,080.0,070.0,15.000,15.108,,12.6709,,12.7143,,12.6926,,,,33.3242,,33.3262,,,,,,5.5544,,5.8973,5.9114,,,,,241.974,158.3542,258.0010,,0.1039,,0.6032,0.5744, ,, , ,,,25.1513,,0.8227,81.4089,,,,3.7131E+00,,1.0000E-12,,,12.7123,,,,,,,,,,,,,,,,
CalCOFI,2101RL,062,,2101_062d,31-Jan-2021 11:35:01,31-Jan-2021 03:35:01,33.81760,-121.83422,080.0 070.0,080.0,070.0,16.000,16.115,,12.6833,,12.7143,,12.6988,,,,33.3241,,33.3261,,,,,,5.5617,,5.9051,5.9192,,,,,242.290,151.5475,258.3366,,0.1093,,0.6474,0.6183, ,, , ,,,25.1513,,0.8213,81.4387,,,,3.6095E+00,,1.0000E-12,,,12.7121,,,,,,,,,,,,,,,,
CalCOFI,2101RL,062,,2101_062d,31-Jan-2021 11:35:06,31-Jan-2021 03:35:06,33.81762,-121.83421,080.0 070.0,080.0,070.0,17.000,17.123,,12.6883,,12.7114,,12.6999,,,,33.3271,,33.3291,,,,,,5.5602,,5.9035,5.9176,,,,,242.227,148.3927,258.2697,,0.1076,,0.6335,0.6044, ,, , ,,,25.1541,,0.8205,81.4549,,,,3.6875E+00,,1.0000E-12,,,12.7092,,,,,,,,,,,,,,,,
CalCOFI,2101RL,062,,2101_062d,31-Jan-2021 11:35:13,31-Jan-2021 03:35:13,33.81764,-121.83419,080.0 070.0,080.0,070.0,18.000,18.130,,12.6946,,12.7080,,12.7013,,,,33.3299,,33.3319,,,,,,5.5614,,5.9048,5.9189,,,,,242.277,144.1726,258.3228,,0.1115,,0.6654,0.6363, ,, , ,,,25.1570,,0.8195,81.4750,,,,3.6947E+00,,1.0000E-12,,,12.7056,,,,,,,,,,,,,,,,
CalCOFI,2101RL,062,,2101_062d,31-Jan-2021 11:35:15,31-Jan-2021 03:35:15,33.81764,-121.83418,080.0 070.0,080.0,070.0,19.000,19.137,,12.6963,,12.7030,,12.6997,,,,33.3320,,33.3340,,,,,,5.5546,,5.8975,5.9117,,,,,241.981,142.5035,258.0085,,0.1089,,0.6441,0.6150, ,, , ,,,25.1597,,0.8205,81.4558,,,,3.6947E+00,,1.0000E-12,,,12.7005,,,,,,,,,,,,,,,,
CalCOFI,2101RL,062,,2101_062d,31-Jan-2021 11:35:20,31-Jan-2021 03:35:20,33.81764,-121.83417,080.0 070.0,080.0,070.0,20.000,20.144,,12.6988,,12.6979,,12.6984,,,,33.3327,,33.3347,,,,,,5.5666,,5.9103,5.9244,,,,,242.504,140.1538,258.5639,,0.1088,,0.6433,0.6142, ,, , ,,,25.1613,,0.8216,81.4313,,,,3.6947E+00,,1.0000E-12,,,12.6952,,,,,20,,33.3327,5.897,257.34,0.633,0.265,,,,,
CalCOFI,2101RL,062,,2101_062d,31-Jan-2021 11:35:25,31-Jan-2021 03:35:25,33.81765,-121.83415,080.0 070.0,080.0,070.0,21.000,21.152,,12.7004,,12.6939,,12.6972,,,,33.3325,,33.3345,,,,,,5.5629,,5.9064,5.9205,,,,,242.342,138.0165,258.3919,,0.1099,,0.6523,0.6232, ,, , ,,,25.1619,,0.8217,81.4309,,,,3.6947E+00,,1.0000E-12,,,12.6911,,,,,,,,,,,,,,,,
CalCOFI,2101RL,062,,2101_062d,31-Jan-2021 11:35:27,31-Jan-2021 03:35:27,33.81766,-121.83414,080.0 070.0,080.0,070.0,22.000,22.159,,12.7007,,12.6889,,12.6948,,,,33.3341,,33.3361,,,,,,5.5642,,5.9077,5.9218,,,,,242.397,136.9768,258.4503,,0.1117,,0.6671,0.6379, ,, , ,,,25.1641,,0.8232,81.4000,,,,3.6947E+00,,1.0000E-12,,,12.6860,,,,,,,,,,,,,,,,
CalCOFI,2101RL,062,,2101_062d,31-Jan-2021 11:35:31,31-Jan-2021 03:35:31,33.81769,-121.83411,080.0 070.0,080.0,070.0,23.000,23.166,,12.7007,,12.6898,,12.6953,,,,33.3359,,33.3379,,,,,,5.5657,,5.9093,5.9234,,,,,242.461,135.3855,258.5182,,0.1094,,0.6482,0.6191, ,, , ,,,25.1654,,0.8277,81.3079,,,,3.6947E+00,,1.0000E-12,,,12.6867,,,,,,,,,,,,,,,,
CalCOFI,2101RL,062,,2101_062d,31-Jan-2021 11:35:34,31-Jan-2021 03:35:34,33.81770,-121.83409,080.0 070.0,080.0,070.0,24.000,24.173,,12.7003,,12.6906,,12.6955,,,,33.3372,,33.3392,,,,,,5.5642,,5.9077,5.9218,,,,,242.396,134.4503,258.4492,,0.1093,,0.6474,0.6183, ,, , ,,,25.1662,,0.8246,81.3720,,,,3.6947E+00,,1.0000E-12,,,12.6874,,,,,,,,,,,,,,,,
CalCOFI,2101RL,062,,2101_062d,31-Jan-2021 11:35:38,31-Jan-2021 03:35:38,33.81772,-121.83408,080.0 070.0,080.0,070.0,25.000,25.181,,12.6995,,12.6888,,12.6942,,,,33.3379,,33.3399,,,,,,5.5578,,5.9009,5.9151,,,,,242.116,133.4039,258.1519,,0.1078,,0.6351,0.6061, ,, , ,,,25.1672,,0.8226,81.4122,,,,3.6947E+00,,1.0000E-12,,,12.6855,,,,,,,,,,,,,,,,
CalCOFI,2101RL,062,,2101_062d,31-Jan-2021 11:35:40,31-Jan-2021 03:35:40,33.81772,-121.83408,080.0 070.0,080.0,070.0,26.000,26.188,,12.6991,,12.6859,,12.6925,,,,33.3391,,33.3411,,,,,,5.5599,,5.9032,5.9173,,,,,242.209,132.7645,258.2506,,0.1099,,0.6523,0.6232, ,, , ,,,25.1687,,0.8226,81.4115,,,,3.6947E+00,,1.0000E-12,,,12.6824,,,,,,,,,,,,,,,,
CalCOFI,2101RL,062,,2101_062d,31-Jan-2021 11:35:43,31-Jan-2021 03:35:43,33.81772,-121.83406,080.0 070.0,080.0,070.0,27.000,27.195,,12.6982,,12.6853,,12.6918,,,,33.3392,,33.3412,,,,,,5.5521,,5.8949,5.9090,,,,,241.870,131.8860,257.8906,,0.1109,,0.6605,0.6314, ,, , ,,,25.1689,,0.8226,81.4112,,,,3.6947E+00,,1.0000E-12,,,12.6817,,,,,,,,,,,,,,,,
CalCOFI,2101RL,062,,2101_062d,31-Jan-2021 11:35:47,31-Jan-2021 03:35:47,33.81774,-121.83404,080.0 070.0,080.0,070.0,28.000,28.203,,12.6971,,12.6846,,12.6909,,,,33.3391,,33.3411,,,,,,5.5531,,5.8959,5.9101,,,,,241.914,131.1187,257.9373,,0.1081,,0.6376,0.6085, ,, , ,,,25.1690,,0.8223,81.4186,,,,3.3736E+00,,1.0000E-12,,,12.6809,,,,,,,,,,,,,,,,
CalCOFI,2101RL,062,,2101_062d,31-Jan-2021 11:35:48,31-Jan-2021 03:35:48,33.81775,-121.83404,080.0 070.0,080.0,070.0,29.000,29.210,,12.6966,,12.6832,,12.6899,,,,33.3394,,33.3414,,,,,,5.5307,,5.8722,5.8863,,,,,240.936,130.6428,256.8986,,0.1116,,0.6663,0.6371, ,, , ,,,25.1695,,0.8256,81.3507,,,,3.6933E+00,,1.0000E-12,,,12.6794,,,,,,,,,,,,,,,,
CalCOFI,2101RL,062,,2101_062d,31-Jan-2021 11:35:50,31-Jan-2021 03:35:50,33.81776,-121.83404,080.0 070.0,080.0,070.0,30.000,30.217,,12.6961,,12.6851,,12.6906,,,,33.3467,,33.3487,,,,,,5.5183,,5.8590,5.8732,,,,,240.397,130.1913,256.3262,,0.1014,,0.5827,0.5541, ,, , ,,,25.1748,,0.8212,81.4398,,,,3.6947E+00,,1.0000E-12,,,12.6811,,,,,,,,,,,,,,,,
CalCOFI,2101RL,062,,2101_062d,31-Jan-2021 11:35:53,31-Jan-2021 03:35:53,33.81776,-121.83402,080.0 070.0,080.0,070.0,31.000,31.225,,12.6952,,12.6898,,12.6925,,,,33.3506,,33.3526,,,,,,5.5078,,5.8478,5.8620,,,,,239.936,129.6431,255.8366,,0.0899,,0.4884,0.4617, ,, , ,,,25.1770,,0.8116,81.6353,,,,3.6947E+00,,1.0000E-12,,,12.6857,,,,,,,,,,,,,,,,
CalCOFI,2101RL,062,,2101_062d,31-Jan-2021 11:35:55,31-Jan-2021 03:35:55,33.81776,-121.83400,080.0 070.0,080.0,070.0,32.000,32.232,,12.6944,,12.6955,,12.6950,,,,33.3578,,33.3598,,,,,,5.5087,,5.8488,5.8630,,,,,239.974,129.2249,255.8769,,0.0871,,0.4655,0.4394, ,, , ,,,25.1814,,0.8032,81.8076,,,,3.6947E+00,,1.0000E-12,,,12.6912,,,,,,,,,,,,,,,,
CalCOFI,2101RL,062,,2101_062d,31-Jan-2021 11:35:58,31-Jan-2021 03:35:58,33.81778,-121.83399,080.0 070.0,080.0,070.0,33.000,33.239,,12.6938,,12.7007,,12.6973,,,,33.3605,,33.3625,,,,,,5.5009,,5.8405,5.8547,,,,,239.636,128.8168,255.5179,,0.0850,,0.4483,0.4227, ,, , ,,,25.1825,,0.7984,81.9064,,,,3.6947E+00,,1.0000E-12,,,12.6963,,,,,,,,,,,,,,,,
CalCOFI,2101RL,062,,2101_062d,31-Jan-2021 11:36:01,31-Jan-2021 03:36:01,33.81780,-121.83398,080.0 070.0,080.0,070.0,34.000,34.247,,12.6935,,12.7034,,12.6985,,,,33.3617,,33.3637,,,,,,5.5003,,5.8399,5.8541,,,,,239.610,128.3531,255.4903,,0.0861,,0.4573,0.4314, ,, , ,,,25.1830,,0.7941,81.9945,,,,3.6947E+00,,1.0000E-12,,,12.6989,,,,,,,,,,,,,,,,
CalCOFI,2101RL,062,,2101_062d,31-Jan-2021 11:36:02,31-Jan-2021 03:36:02,33.81780,-121.83398,080.0 070.0,080.0,070.0,35.000,35.254,,12.6935,,12.7047,,12.6991,,,,33.3624,,33.3644,,,,,,5.5004,,5.8400,5.8542,,,,,239.613,127.9228,255.4935,,0.0881,,0.4737,0.4473, ,, , ,,,25.1833,,0.7927,82.0222,,,,3.6947E+00,,1.0000E-12,,,12.7000,,,,,,,,,,,,,,,,
CalCOFI,2101RL,062,,2101_062d,31-Jan-2021 11:36:05,31-Jan-2021 03:36:05,33.81781,-121.83398,080.0 070.0,080.0,070.0,36.000,36.261,,12.6940,,12.7051,,12.6996,,,,33.3624,,33.3644,,,,,,5.4900,,5.8289,5.8432,,,,,239.162,127.4535,255.0145,,0.0838,,0.4385,0.4132, ,, , ,,,25.1832,,0.7925,82.0266,,,,3.6947E+00,,1.0000E-12,,,12.7003,,,,,,,,,,,,,,,,
CalCOFI,2101RL,062,,2101_062d,31-Jan-2021 11:36:07,31-Jan-2021 03:36:07,33.81782,-121.83398,080.0 070.0,080.0,070.0,37.000,37.269,,12.6947,,12.7047,,12.6997,,,,33.3624,,33.3644,,,,,,5.5083,,5.8484,5.8626,,,,,239.957,127.0387,255.8589,,0.0804,,0.4106,0.3862, ,, , ,,,25.1833,,0.7913,82.0507,,,,3.6947E+00,,1.0000E-12,,,12.6998,,,,,,,,,,,,,,,,
CalCOFI,2101RL,062,,2101_062d,31-Jan-2021 11:36:08,31-Jan-2021 03:36:08,33.81782,-121.83398,080.0 070.0,080.0,070.0,38.000,38.276,,12.6954,,12.7043,,12.6999,,,,33.3624,,33.3644,,,,,,5.4942,,5.8334,5.8476,,,,,239.345,126.8374,255.2089,,0.0794,,0.4024,0.3784, ,, , ,,,25.1834,,0.7889,82.1014,,,,3.6947E+00,,1.0000E-12,,,12.6993,,,,,,,,,,,,,,,,
CalCOFI,2101RL,062,,2101_062d,31-Jan-2021 11:36:10,31-Jan-2021 03:36:10,33.81782,-121.83398,080.0 070.0,080.0,070.0,39.000,39.283,,12.6963,,12.7029,,12.6996,,,,33.3630,,33.3650,,,,,,5.4999,,5.8394,5.8537,,,,,239.592,126.7096,255.4712,,0.0809,,0.4147,0.3902, ,, , ,,,25.1842,,0.7892,82.0956,,,,3.6947E+00,,1.0000E-12,,,12.6977,,,,,,,,,,,,,,,,
CalCOFI,2101RL,062,,2101_062d,31-Jan-2021 11:36:13,31-Jan-2021 03:36:13,33.81782,-121.83396,080.0 070.0,080.0,070.0,40.000,40.291,,12.6975,,12.7001,,12.6988,,,,33.3635,,33.3655,,,,,,5.4972,,5.8366,5.8508,,,,,239.472,126.3537,255.3438,,0.0815,,0.4196,0.3949, ,, , ,,,25.1852,,0.7954,81.9675,,,,3.6947E+00,,1.0000E-12,,,12.6948,,,,,,,,,,,,,,,,
CalCOFI,2101RL,062,,2101_062d,31-Jan-2021 11:36:15,31-Jan-2021 03:36:15,33.81782,-121.83396,080.0 070.0,080.0,070.0,41.000,41.298,,12.6983,,12.6703,,12.6843,,,,33.3591,,33.3611,,,,,,5.5097,,5.8499,5.8640,,,,,240.016,126.0412,255.9215,,0.0912,,0.4991,0.4721, ,, , ,,,25.1876,,0.7986,81.9017,,,,3.6947E+00,,1.0000E-12,,,12.6648,,,,,,,,,,,,,,,,
CalCOFI,2101RL,062,,2101_062d,31-Jan-2021 11:36:16,31-Jan-2021 03:36:16,33.81782,-121.83396,080.0 070.0,080.0,070.0,42.000,42.305,,12.6988,,12.6588,,12.6788,,,,33.3575,,33.3595,,,,,,5.5177,,5.8583,5.8725,,,,,240.368,125.7910,256.2954,,0.0988,,0.5614,0.5331, ,, , ,,,25.1886,,0.8036,81.7998,,,,3.6947E+00,,1.0000E-12,,,12.6532,,,,,,,,,,,,,,,,
CalCOFI,2101RL,062,,2101_062d,31-Jan-2021 11:36:19,31-Jan-2021 03:36:19,33.81782,-121.83396,080.0 070.0,080.0,070.0,43.000,43.313,,12.6986,,12.6519,,12.6753,,,,33.3602,,33.3622,,,,,,5.5247,,5.8658,5.8800,,,,,240.669,125.3173,256.6151,,0.1021,,0.5884,0.5598, ,, , ,,,25.1921,,0.8089,81.6903,,,,3.6947E+00,,1.0000E-12,,,12.6461,,,,,,,,,,,,,,,,
CalCOFI,2101RL,062,,2101_062d,31-Jan-2021 11:36:22,31-Jan-2021 03:36:22,33.81782,-121.83394,080.0 070.0,080.0,070.0,44.000,44.320,,12.6969,,12.6502,,12.6736,,,,33.3624,,33.3644,,,,,,5.5215,,5.8624,5.8766,,,,,240.529,125.0615,256.4664,,0.1031,,0.5966,0.5679, ,, , ,,,25.1942,,0.8133,81.6004,,,,3.6947E+00,,1.0000E-12,,,12.6443,,,,,,,,,,,,,,,,
CalCOFI,2101RL,062,,2101_062d,31-Jan-2021 11:36:23,31-Jan-2021 03:36:23,33.81782,-121.83394,080.0 070.0,080.0,070.0,45.000,45.328,,12.6954,,12.6465,,12.6710,,,,33.3628,,33.3648,,,,,,5.5236,,5.8646,5.8788,,,,,240.620,124.7424,256.5630,,0.1069,,0.6277,0.5987, ,, , ,,,25.1952,,0.8154,81.5588,,,,3.6947E+00,,1.0000E-12,,,12.6406,,,,,,,,,,,,,,,,
CalCOFI,2101RL,062,,2101_062d,31-Jan-2021 11:36:24,31-Jan-2021 03:36:24,33.81782,-121.83394,080.0 070.0,080.0,070.0,46.000,46.335,,12.6940,,12.6418,,12.6679,,,,33.3634,,33.3654,,,,,,5.5303,,5.8717,5.8859,,,,,240.912,124.6657,256.8731,,0.1081,,0.6376,0.6085, ,, , ,,,25.1966,,0.8153,81.5608,,,,3.6947E+00,,1.0000E-12,,,12.6356,,,,,,,,,,,,,,,,
CalCOFI,2101RL,062,,2101_062d,31-Jan-2021 11:36:26,31-Jan-2021 03:36:26,33.81782,-121.83394,080.0 070.0,080.0,070.0,47.000,47.342,,12.6913,,12.6399,,12.6656,,,,33.3646,,33.3666,,,,,,5.5266,,5.8678,5.8820,,,,,240.750,124.5300,256.7011,,0.1066,,0.6253,0.5963, ,, , ,,,25.1979,,0.8160,81.5476,,,,3.6947E+00,,1.0000E-12,,,12.6336,,,,,,,,,,,,,,,,
CalCOFI,2101RL,062,,2101_062d,31-Jan-2021 11:36:29,31-Jan-2021 03:36:29,33.81784,-121.83394,080.0 070.0,080.0,070.0,48.000,48.350,,12.6853,,12.6437,,12.6645,,,,33.3666,,33.3686,,,,,,5.5339,,5.8756,5.8897,,,,,241.067,124.1630,257.0378,,0.1113,,0.6638,0.6346, ,, , ,,,25.1988,,0.8166,81.5350,,,,3.6947E+00,,1.0000E-12,,,12.6373,,,,,,,,,,,,,,,,
CalCOFI,2101RL,062,,2101_062d,31-Jan-2021 11:36:31,31-Jan-2021 03:36:31,33.81784,-121.83392,080.0 070.0,080.0,070.0,49.000,49.357,,12.6816,,12.6465,,12.6641,,,,33.3694,,33.3714,,,,,,5.5326,,5.8742,5.8883,,,,,241.012,123.9573,256.9793,,0.1078,,0.6351,0.6061, ,, , ,,,25.2004,,0.8175,81.5156,,,,3.6947E+00,,1.0000E-12,,,12.6400,,,,,,,,,,,,,,,,
CalCOFI,2101RL,062,,2101_062d,31-Jan-2021 11:36:33,31-Jan-2021 03:36:33,33.81784,-121.83392,080.0 070.0,080.0,070.0,50.000,50.365,,12.6782,,12.6431,,12.6607,,,,33.3707,,33.3727,,,,,,5.5243,,5.8654,5.8795,,,,,240.651,123.6726,256.5959,,0.1062,,0.6220,0.5930, ,, , ,,,25.2021,,0.8124,81.6188,,,,3.6947E+00,,1.0000E-12,,,12.6364,,,,,50,,33.3775,5.826,254.24,0.592,0.285,,,,,
CalCOFI,2101RL,062,,2101_062d,31-Jan-2021 11:36:35,31-Jan-2021 03:36:35,33.81784,-121.83390,080.0 070.0,080.0,070.0,51.000,51.372,,12.6746,,12.6419,,12.6583,,,,33.3727,,33.3747,,,,,,5.5080,,5.8480,5.8622,,,,,239.942,123.4180,255.8429,,0.1062,,0.6220,0.5930, ,, , ,,,25.2039,,0.8124,81.6200,,,,3.6947E+00,,1.0000E-12,,,12.6351,,,,,,,,,,,,,,,,
CalCOFI,2101RL,062,,2101_062d,31-Jan-2021 11:36:37,31-Jan-2021 03:36:37,33.81784,-121.83390,080.0 070.0,080.0,070.0,52.000,52.380,,12.6707,,12.6429,,12.6568,,,,33.3745,,33.3765,,,,,,5.5164,,5.8570,5.8712,,,,,240.304,123.1578,256.2274,,0.1031,,0.5966,0.5679, ,, , ,,,25.2052,,0.8069,81.7318,,,,3.6947E+00,,1.0000E-12,,,12.6360,,,,,,,,,,,,,,,,
CalCOFI,2101RL,062,,2101_062d,31-Jan-2021 11:36:39,31-Jan-2021 03:36:39,33.81784,-121.83390,080.0 070.0,080.0,070.0,53.000,53.387,,12.6674,,12.6452,,12.6563,,,,33.3774,,33.3794,,,,,,5.5078,,5.8478,5.8620,,,,,239.929,122.9298,255.8291,,0.1003,,0.5737,0.5452, ,, , ,,,25.2070,,0.8031,81.8098,,,,3.6947E+00,,1.0000E-12,,,12.6381,,,,,,,,,,,,,,,,
CalCOFI,2101RL,062,,2101_062d,31-Jan-2021 11:36:41,31-Jan-2021 03:36:41,33.81784,-121.83390,080.0 070.0,080.0,070.0,54.000,54.394,,12.6647,,12.6487,,12.6567,,,,33.3802,,33.3822,,,,,,5.4886,,5.8274,5.8417,,,,,239.094,122.6740,254.9423,,0.0983,,0.5573,0.5291, ,, , ,,,25.2085,,0.8019,81.8342,,,,3.6947E+00,,1.0000E-12,,,12.6416,,,,,,,,,,,,,,,,
CalCOFI,2101RL,062,,2101_062d,31-Jan-2021 11:36:43,31-Jan-2021 03:36:43,33.81784,-121.83390,080.0 070.0,080.0,070.0,55.000,55.402,,12.6630,,12.6522,,12.6576,,,,33.3859,,33.3879,,,,,,5.4793,,5.8176,5.8318,,,,,238.689,122.5573,254.5122,,0.0949,,0.5294,0.5017, ,, , ,,,25.2123,,0.8082,81.7060,,,,3.6947E+00,,1.0000E-12,,,12.6449,,,,,,,,,,,,,,,,
CalCOFI,2101RL,062,,2101_062d,31-Jan-2021 11:36:45,31-Jan-2021 03:36:45,33.81782,-121.83388,080.0 070.0,080.0,070.0,56.000,56.409,,12.6619,,12.6572,,12.6596,,,,33.3903,,33.3923,,,,,,5.4709,,5.8086,5.8229,,,,,238.322,122.3227,254.1224,,0.0925,,0.5098,0.4825, ,, , ,,,25.2147,,0.7970,81.9350,,,,3.6947E+00,,1.0000E-12,,,12.6497,,,,,,,,,,,,,,,,
CalCOFI,2101RL,062,,2101_062d,31-Jan-2021 11:36:47,31-Jan-2021 03:36:47,33.81782,-121.83388,080.0 070.0,080.0,070.0,57.000,57.417,,12.6609,,12.6751,,12.6680,,,,33.3984,,33.4004,,,,,,5.4528,,5.7894,5.8037,,,,,237.534,122.1614,253.2855,,0.0880,,0.4729,0.4465, ,, , ,,,25.2175,,0.7910,82.0586,,,,3.6947E+00,,1.0000E-12,,,12.6675,,,,,,,,,,,,,,,,
CalCOFI,2101RL,062,,2101_062d,31-Jan-2021 11:36:49,31-Jan-2021 03:36:49,33.81782,-121.83388,080.0 070.0,080.0,070.0,58.000,58.424,,12.6617,,12.7056,,12.6837,,,,33.4153,,33.4173,,,,,,5.4481,,5.7844,5.7987,,,,,237.326,121.9713,253.0646,,0.0825,,0.4278,0.4029, ,, , ,,,25.2247,,0.7865,82.1502,,,,3.6947E+00,,1.0000E-12,,,12.6979,,,,,,,,,,,,,,,,
CalCOFI,2101RL,062,,2101_062d,31-Jan-2021 11:36:51,31-Jan-2021 03:36:51,33.81782,-121.83388,080.0 070.0,080.0,070.0,59.000,59.432,,12.6646,,12.7194,,12.6920,,,,33.4242,,33.4262,,,,,,5.4367,,5.7723,5.7866,,,,,236.827,121.7299,252.5346,,0.0815,,0.4196,0.3949, ,, , ,,,25.2290,,0.7829,82.2242,,,,3.6947E+00,,1.0000E-12,,,12.7115,,,,,,,,,,,,,,,,
CalCOFI,2101RL,062,,2101_062d,31-Jan-2021 11:36:53,31-Jan-2021 03:36:53,33.81782,-121.83388,080.0 070.0,080.0,070.0,60.000,60.439,,12.6690,,12.7296,,12.6993,,,,33.4306,,33.4326,,,,,,5.4531,,5.7897,5.8040,,,,,237.544,121.5454,253.2961,,0.0765,,0.3786,0.3555, ,, , ,,,25.2320,,0.7816,82.2516,,,,3.6947E+00,,1.0000E-12,,,12.7215,,,,,,,,,,,,,,,,
CalCOFI,2101RL,062,,2101_062d,31-Jan-2021 11:36:56,31-Jan-2021 03:36:56,33.81782,-121.83388,080.0 070.0,080.0,070.0,61.000,61.447,,12.6768,,12.7266,,12.7017,,,,33.4302,,33.4322,,,,,,5.4049,,5.7385,5.7529,,,,,235.441,121.2796,251.0626,,0.0734,,0.3532,0.3312, ,, , ,,,25.2323,,0.7786,82.3122,,,,3.6947E+00,,1.0000E-12,,,12.7185,,,,,,,,,,,,,,,,
CalCOFI,2101RL,062,,2101_062d,31-Jan-2021 11:36:58,31-Jan-2021 03:36:58,33.81780,-121.83390,080.0 070.0,080.0,070.0,62.000,62.454,,12.6813,,12.7351,,12.7082,,,,33.4370,,33.4390,,,,,,5.3850,,5.7174,5.7318,,,,,234.573,121.1206,250.1407,,0.0695,,0.3213,0.3007, ,, , ,,,25.2359,,0.7767,82.3512,,,,3.6947E+00,,1.0000E-12,,,12.7268,,,,,,,,,,,,,,,,
CalCOFI,2101RL,062,,2101_062d,31-Jan-2021 11:36:59,31-Jan-2021 03:36:59,33.81780,-121.83390,080.0 070.0,080.0,070.0,63.000,63.461,,12.6849,,12.7309,,12.7079,,,,33.4374,,33.4394,,,,,,5.3442,,5.6741,5.6885,,,,,232.794,120.9804,248.2513,,0.0665,,0.2967,0.2773, ,, , ,,,25.2370,,0.7740,82.4060,,,,3.6947E+00,,1.0000E-12,,,12.7225,,,,,,,,,,,,,,,,
CalCOFI,2101RL,062,,2101_062d,31-Jan-2021 11:37:01,31-Jan-2021 03:37:01,33.81780,-121.83390,080.0 070.0,080.0,070.0,64.000,64.469,,12.6894,,12.6947,,12.6921,,,,33.4367,,33.4387,,,,,,5.2656,,5.5906,5.6052,,,,,229.371,120.8681,244.6159,,0.0635,,0.2721,0.2541, ,, , ,,,25.2436,,0.7712,82.4638,,,,3.6947E+00,,1.0000E-12,,,12.6862,,,,,,,,,,,,,,,,
CalCOFI,2101RL,062,,2101_062d,31-Jan-2021 11:37:03,31-Jan-2021 03:37:03,33.81780,-121.83390,080.0 070.0,080.0,070.0,65.000,65.476,,12.6893,,12.5451,,12.6172,,,,33.4391,,33.4411,,,,,,4.9928,,5.3009,5.3159,,,,,217.482,120.7169,231.9891,,0.0583,,0.2295,0.2139, ,, , ,,,25.2745,,0.7684,82.5231,,,,3.6947E+00,,1.0000E-12,,,12.5365,,,,,,,,,,,,,,,,
CalCOFI,2101RL,062,,2101_062d,31-Jan-2021 11:37:05,31-Jan-2021 03:37:05,33.81780,-121.83390,080.0 070.0,080.0,070.0,66.000,66.484,,12.6592,,12.0121,,12.3357,,,,33.4055,,33.4075,,,,,,4.7908,,5.0863,5.1017,,,,,208.667,120.5523,222.6270,,0.0513,,0.1722,0.1603, ,, , ,,,25.3500,,0.7620,82.6541,,,,3.6947E+00,,1.0000E-12,,,12.0036,,,,,,,,,,,,,,,,
CalCOFI,2101RL,062,,2101_062d,31-Jan-2021 11:37:08,31-Jan-2021 03:37:08,33.81782,-121.83387,080.0 070.0,080.0,070.0,67.000,67.491,,12.5422,,11.7296,,12.1359,,,,33.3873,,33.3893,,,,,,4.5088,,4.7868,4.8026,,,,,196.376,120.4845,209.5732,,0.0470,,0.1369,0.1275, ,, , ,,,25.3886,,0.7568,82.7613,,,,3.6947E+00,,1.0000E-12,,,11.7211,,,,,,,,,,,,,,,,
CalCOFI,2101RL,062,,2101_062d,31-Jan-2021 11:37:11,31-Jan-2021 03:37:11,33.81783,-121.83386,080.0 070.0,080.0,070.0,68.000,68.499,,12.4608,,11.2817,,11.8713,,,,33.3847,,33.3867,,,,,,4.1176,,4.3713,4.3878,,,,,179.326,120.4278,191.4651,,0.0490,,0.1533,0.1427, ,, , ,,,25.4688,,0.7565,82.7683,,,,3.6947E+00,,1.0000E-12,,,11.2733,,,,,,,,,,,,,,,,
CalCOFI,2101RL,062,,2101_062d,31-Jan-2021 11:37:12,31-Jan-2021 03:37:12,33.81784,-121.83386,080.0 070.0,080.0,070.0,69.000,69.506,,12.4053,,11.1067,,11.7560,,,,33.3936,,33.3956,,,,,,4.0542,,4.3040,4.3206,,,,,176.556,120.4545,188.5232,,0.0547,,0.2000,0.1863, ,, , ,,,25.5071,,0.7575,82.7461,,,,3.6947E+00,,1.0000E-12,,,11.0983,,,,,,,,,,,,,,,,